Adrian, MI

2:11 AM EDT on April 26, 2018 (GMT -0400)
Lenawee County

Weather History for KADG - April, 2013

Change the Weather History Date:

Tuesday, April 23, 2013

  Actual Average Record
Temperature  
Mean Temperature 54 °F -  
Max Temperature 71 °F 62 °F 85 °F (1960)
Min Temperature 37 °F 38 °F 17 °F (1986)
Degree Days  
Heating Degree Days 12    
Growing Degree Days 4 (Base 50)    
Moisture  
Dew Point 43 °F    
Average Humidity 72    
Maximum Humidity 100    
Minimum Humidity 36    
Precipitation  
Precipitation 0.22 in - - ()
Sea Level Pressure  
Sea Level Pressure 30.01 in    
Wind  
Wind Speed 7 mph (SSW)    
Max Wind Speed 22 mph    
Max Gust Speed 34 mph    
Visibility 9 miles    
Events Rain    
Averages and records for this station are not official NWS values.
T = Trace of Precipitation, MM = Missing Value Source: NWS Daily Summary

Daily Weather History Graph

Daily Weather History Graph

Search for Another Location

Airport or City:

Astronomy

Apr. 23, 2013 Rise Set
Actual Time 6:43 AM EDT 8:26 PM EDT
Civil Twilight 6:13 AM EDT 8:56 PM EDT
Nautical Twilight 5:37 AM EDT 9:32 PM EDT
Astronomical Twilight 4:59 AM EDT 10:10 PM EDT
Moon 6:18 PM EDT (4/23) 5:13 AM EDT (4/23)
Length of Visible Light 14h 42m
Length of Day
13h 42m
Waxing Gibbous, 94% of the Moon is Illuminated
Apr 23
Waxing Gibbous
Apr 25
Full
May 2
Last Quarter
May 9
New
May 18
First Quarter

Hourly Weather History & Observations

Time (EDT) Temp. Windchill Dew Point Humidity Pressure Visibility Wind Dir Wind Speed Gust Speed Precip Events Conditions
12:53 AM 41.0 °F 38.0 °F 35.1 °F 79% 30.19 in 10.0 mi ENE 4.6 mph - N/A   Clear
1:53 AM 42.1 °F 40.2 °F 35.1 °F 76% 30.18 in 10.0 mi East 3.5 mph - N/A   Clear
2:53 AM 41.0 °F - 35.1 °F 79% 30.16 in 10.0 mi Calm Calm - N/A   Clear
3:53 AM 39.0 °F - 35.1 °F 86% 30.14 in 10.0 mi Calm Calm - N/A   Clear
4:53 AM 37.0 °F - 34.0 °F 89% 30.13 in 10.0 mi Calm Calm - N/A   Clear
5:53 AM 37.9 °F - 35.1 °F 89% 30.10 in 10.0 mi Calm Calm - N/A   Clear
6:53 AM 41.0 °F - 35.1 °F 79% 30.10 in 10.0 mi Calm Calm - N/A   Clear
7:53 AM 41.0 °F - 37.0 °F 86% 30.11 in 10.0 mi Calm Calm - N/A   Clear
8:53 AM 51.1 °F - 37.9 °F 61% 30.10 in 10.0 mi SSW 10.4 mph - N/A   Clear
9:53 AM 57.0 °F - 39.0 °F 51% 30.09 in 10.0 mi SSW 9.2 mph - N/A   Clear
10:53 AM 61.0 °F - 39.9 °F 46% 30.06 in 10.0 mi SSW 12.7 mph - N/A   Clear
11:53 AM 64.9 °F - 42.1 °F 43% 30.05 in 10.0 mi SSW 12.7 mph - N/A   Partly Cloudy
12:53 PM 69.1 °F - 42.1 °F 38% 30.02 in 10.0 mi SSW 17.3 mph 24.2 mph N/A   Clear
1:53 PM 70.0 °F - 42.1 °F 36% 29.98 in 10.0 mi SW 17.3 mph 25.3 mph N/A   Clear
2:53 PM 69.1 °F - 43.0 °F 39% 29.96 in 10.0 mi SW 18.4 mph 27.6 mph N/A   Clear
3:53 PM 69.1 °F - 42.1 °F 38% 29.92 in 10.0 mi SW 19.6 mph 29.9 mph N/A   Mostly Cloudy
4:53 PM 69.1 °F - 45.0 °F 42% 29.90 in 10.0 mi SW 21.9 mph 26.5 mph N/A   Scattered Clouds
5:53 PM 60.1 °F - 52.0 °F 75% 29.92 in 4.0 mi SW 21.9 mph 34.5 mph 0.02 in Rain Rain
6:53 PM 57.0 °F - 54.0 °F 89% 29.92 in 8.0 mi West 9.2 mph 19.6 mph 0.06 in Rain Light Rain
7:53 PM 57.0 °F - 54.0 °F 89% 29.91 in 10.0 mi WSW 6.9 mph - 0.00 in   Overcast
8:53 PM 55.9 °F - 53.1 °F 90% 29.90 in 10.0 mi SW 8.1 mph - 0.02 in Rain Light Rain
9:53 PM 55.0 °F - 53.1 °F 93% 29.87 in 6.0 mi SSW 3.5 mph - 0.02 in Rain Light Rain
10:53 PM 54.0 °F - 54.0 °F 100% 29.85 in 3.0 mi SSE 5.8 mph - 0.08 in Rain Light Rain
11:33 PM 53.6 °F - 53.6 °F 100% 29.81 in 4.0 mi SSE 6.9 mph - 0.02 in Rain Light Rain
11:53 PM 54.0 °F - 53.1 °F 97% 29.80 in 4.0 mi SSE 8.1 mph - 0.02 in   Overcast